OBJECT AQ, 57204

Orbit data source: Space-Track

You're viewing an uncataloged RSO

Recently launched and/or uncataloged RSOs may have evolving metadata. Metadata may include the following, but is not limited to: Owner, Manufacturer, Bus, Motor, and Mission.

OBJECT AQ, 57204 is a satellite in SSO that was launched on Tue, 27 Jun 2023 UTC via a SOYUZ-2-1B launch vehicle from the Vostochny Cosmodrome (VOSTO). Unknown objects in Earth's orbit typically refer to objects detected orbiting the Earth but have not yet been identified or cataloged. These objects could be anything from previously untracked satellites, spent rocket stages, debris from satellite collisions, or even natural meteoroids temporarily captured by Earth's gravity.

Loading next visibility...
Identifier
57204, 2023-091AQ
Orbit
SSO
Country
Flag of TBDTBD
Related business
Manufacturer
Sputniks
Mission
Operational Commercial Communications
Bus & Motor
CUBESAT 3U?, Unknown motor
Mass
3 kg wet, 3 kg dry
Launch date (UTC)
2023-06-27 (3 years ago)
Launch vehicle
SOYUZ-2-1B
Launch site
Vostochny Cosmodrome (VOSTO)
Object type
Unknown
Shape & HBR
Box, 0.2 m
Radar Cross Section
0.035 m², Medium (>0.1 m² and < 1m²)

Expand to show TLE details & history
Last TLE update: 9 hours ago

TLE from 9 hours ago
0 OBJECT AQ
1 57204U 23091AQ  26256.89821624  .00018271  00000-0  43774-3 0  9991
2 57204  97.5011 329.9048 0007194 107.0818 253.1217 15.41452946178428
Epoch: 2026-09-13T21:33Z
TLE epoch observation values (Epoch: 2026-09-13T21:33:25.883Z)
Latitude
Longitude
13.66069°
Altitude
446.365 km
Speed
7.644 km/s
True Right ascension
21h 59m 37s
True Declination
0° 00' 00"
Sunlit
Object was in full shadow at epoch
Visualization orbit readout
Latitude
Unknown
Longitude
Unknown
Altitude
Unknown
Speed
Unknown
Apparent Right ascension
Unknown
Apparent Declination
Unknown
Sunlit
N/A
Visualization observer readout
Local Sidereal Time
23:28:19
Azimuth
Unknown
Elevation
Unknown
Doppler factor
Unknown
Orbital elements
Apogee altitude
443.666 km
Perigee altitude
433.858 km
Semi-major axis
6,816.899 km
Eccentricity
0.00072
Inclination
97.5011°
RAAN
329.9048°
Arg. of periapsis
107.0818°
True anomaly
253.04283°
Mean anomaly
253.1217°
Eccentric anomaly
253.08227°
Mean motion
3.85623 °/min
Orbital period
93.36 mins
BSTAR
0.00043774
Loading maneuver chart data...
Computing Atmospheric mass density...
Loading historical data...
Loading historical data...
Loading historical data...
Loading historical data...
Loading historical data...
Loading historical data...
Loading historical data...

Documentation

Showing up to 5 results
|